,,,PA_Meas_PMT16A,,PR_Meas_QMR101_102,,RH_Meas_QMH101,,SR_Meas_QMS101,,TA_Meas_QMH101,,GenWind,,GenWind,
date,time,status,PA,status,PR,status,RH,status,SR,status,TA,status,DirAvg,status,SpdAvg,
2009-08-06, 00:00:04,VALID,999.365,VALID,0,VALID,57.0162,VALID,0,VALID,28.075,VALID,182,VALID,4.26875,
2009-08-06, 00:01:04,VALID,999.365,VALID,0,VALID,57.1611,VALID,0,VALID,28.075,VALID,183,VALID,5.80156,
2009-08-06, 00:02:04,VALID,999.39,VALID,0,VALID,57.0619,VALID,0,VALID,28.0728,VALID,177,VALID,5.25078,
2009-08-06, 00:03:04,VALID,999.309,VALID,0,VALID,57.0696,VALID,0,VALID,28.0945,VALID,192,VALID,5.05625,
2009-08-06, 00:04:04,VALID,999.388,VALID,0,VALID,57.39,VALID,0,VALID,28.075,VALID,204,VALID,3.98555,
2009-08-06, 00:05:04,VALID,999.35,VALID,0,VALID,57.3976,VALID,0,VALID,28.0164,VALID,195,VALID,3.63867,
2009-08-06, 00:06:04,VALID,999.335,VALID,0,VALID,57.5197,VALID,0,VALID,27.9773,VALID,204,VALID,4.2375,
2009-08-06, 00:07:04,VALID,999.27,VALID,0,VALID,57.4968,VALID,0,VALID,27.9773,VALID,192,VALID,4.49531,
2009-08-06, 00:08:04,VALID,999.266,VALID,0,VALID,57.5197,VALID,0,VALID,27.9752,VALID,181,VALID,4.68945,
2009-08-06, 00:09:04,VALID,999.247,VALID,0,VALID,57.7867,VALID,0,VALID,27.9968,VALID,197,VALID,3.8582,
2009-08-06, 00:10:04,VALID,999.195,VALID,0,VALID,57.5273,VALID,0,VALID,27.9556,VALID,189,VALID,3.36523,
2009-08-06, 00:11:04,VALID,999.232,VALID,0,VALID,57.7791,VALID,0,VALID,27.9577,VALID,186,VALID,4.58672,
2009-08-06, 00:12:04,VALID,999.171,VALID,0,VALID,57.9546,VALID,0,VALID,27.9361,VALID,196,VALID,4.22852,
2009-08-06, 00:13:04,VALID,999.214,VALID,0,VALID,58.0385,VALID,0,VALID,27.9165,VALID,183,VALID,2.95898,
2009-08-06, 00:14:04,VALID,999.156,VALID,0,VALID,58.1911,VALID,0,VALID,27.8754,VALID,186,VALID,4.47227,
2009-08-06, 00:15:04,VALID,999.114,VALID,0,VALID,58.0385,VALID,0,VALID,27.897,VALID,176,VALID,5.24297,
2009-08-06, 00:16:04,VALID,999.109,VALID,0,VALID,57.9241,VALID,0,VALID,27.897,VALID,173,VALID,5.21914,
2009-08-06, 00:17:04,VALID,999.097,VALID,0,VALID,58.069,VALID,0,VALID,27.8579,VALID,175,VALID,5.26055,
2009-08-06, 00:18:04,VALID,999.118,VALID,0,VALID,58.4429,VALID,0.112286,VALID,27.8558,VALID,171,VALID,3.88398,
2009-08-06, 00:19:04,VALID,999.097,VALID,0,VALID,58.4505,VALID,0,VALID,27.8189,VALID,176,VALID,5.32969,
2009-08-06, 00:20:04,VALID,999.099,VALID,0,VALID,57.8249,VALID,0,VALID,27.897,VALID,188,VALID,5.36055,
2009-08-06, 00:21:04,VALID,999.088,VALID,0,VALID,57.8859,VALID,0.112286,VALID,27.9361,VALID,178,VALID,5.17383,
2009-08-06, 00:22:04,VALID,999.032,VALID,0,VALID,57.7715,VALID,0,VALID,27.9382,VALID,177,VALID,5.43594,
2009-08-06, 00:23:04,VALID,998.992,VALID,0,VALID,57.657,VALID,0,VALID,27.9556,VALID,179,VALID,6.53086,
2009-08-06, 00:24:04,VALID,998.98,VALID,0,VALID,57.7333,VALID,0,VALID,27.934,VALID,185,VALID,5.61758,
2009-08-06, 00:25:04,VALID,998.932,VALID,0,VALID,58.0614,VALID,0,VALID,27.9144,VALID,179,VALID,5.76328,
2009-08-06, 00:26:04,VALID,998.977,VALID,0,VALID,58.0919,VALID,0,VALID,27.9361,VALID,176,VALID,5.12969,
2009-08-06, 00:27:04,VALID,998.942,VALID,0,VALID,58.1835,VALID,0,VALID,27.8796,VALID,180,VALID,5.23984,
2009-08-06, 00:28:04,VALID,998.899,VALID,0,VALID,58.3056,VALID,0,VALID,27.8991,VALID,188,VALID,4.25977,
2009-08-06, 00:29:04,VALID,998.929,VALID,0,VALID,58.5573,VALID,0,VALID,27.8579,VALID,172,VALID,5.28164,
2009-08-06, 00:30:04,VALID,998.94,VALID,0,VALID,58.565,VALID,0,VALID,27.7798,VALID,180,VALID,5.89063,
2009-08-06, 00:31:04,VALID,998.941,VALID,0,VALID,58.2674,VALID,0,VALID,27.8796,VALID,183,VALID,5.88555,
2009-08-06, 00:32:04,VALID,998.924,VALID,0,VALID,57.947,VALID,0,VALID,27.9577,VALID,184,VALID,5.00078,
2009-08-06, 00:33:04,VALID,998.84,VALID,0,VALID,57.6723,VALID,0,VALID,27.9968,VALID,182,VALID,7.07852,
2009-08-06, 00:34:04,VALID,998.867,VALID,0,VALID,58.0233,VALID,0,VALID,27.9361,VALID,177,VALID,5.25625,
2009-08-06, 00:35:04,VALID,998.856,VALID,0,VALID,58.42,VALID,0,VALID,27.897,VALID,164,VALID,4.33984,
2009-08-06, 00:36:04,VALID,998.824,VALID,0,VALID,58.3208,VALID,0,VALID,27.8601,VALID,179,VALID,6.50977,
2009-08-06, 00:37:04,VALID,998.825,VALID,0,VALID,58.1606,VALID,0,VALID,27.8796,VALID,175,VALID,4.69336,
2009-08-06, 00:38:04,VALID,998.815,VALID,0,VALID,58.2293,VALID,0,VALID,27.8796,VALID,182,VALID,4.59531,
2009-08-06, 00:39:04,VALID,998.771,VALID,0,VALID,58.2521,VALID,0,VALID,27.8775,VALID,183,VALID,4.89844,
2009-08-06, 00:40:04,VALID,998.756,VALID,0,VALID,58.3056,VALID,0,VALID,27.8796,VALID,183,VALID,4.12813,
2009-08-06, 00:41:04,VALID,998.722,VALID,0,VALID,58.2827,VALID,0,VALID,27.8775,VALID,177,VALID,5.64922,
2009-08-06, 00:42:04,VALID,998.787,VALID,0,VALID,58.275,VALID,0,VALID,27.9187,VALID,183,VALID,5.32383,
2009-08-06, 00:43:04,VALID,998.768,VALID,0,VALID,58.1911,VALID,0,VALID,27.9382,VALID,183,VALID,4.76836,
2009-08-06, 00:44:04,VALID,998.711,VALID,0,VALID,58.275,VALID,0,VALID,27.9382,VALID,181,VALID,6.30352,
2009-08-06, 00:45:04,VALID,998.69,VALID,0,VALID,58.2521,VALID,0,VALID,27.9165,VALID,179,VALID,5.05,
2009-08-06, 00:46:04,VALID,998.682,VALID,0,VALID,58.2598,VALID,0,VALID,27.8991,VALID,182,VALID,5.29727,
2009-08-06, 00:47:04,VALID,998.671,VALID,0,VALID,58.0385,VALID,0,VALID,27.897,VALID,192,VALID,3.69023,
2009-08-06, 00:48:04,VALID,998.658,VALID,0,VALID,57.8249,VALID,0,VALID,27.9165,VALID,177,VALID,4.51563,
2009-08-06, 00:49:04,VALID,998.648,VALID,0,VALID,57.9164,VALID,0,VALID,27.897,VALID,172,VALID,6.53672,
2009-08-06, 00:50:04,VALID,998.64,VALID,0,VALID,58.3208,VALID,0,VALID,27.8579,VALID,172,VALID,4.97188,
2009-08-06, 00:51:04,VALID,998.655,VALID,0,VALID,58.4581,VALID,0,VALID,27.8601,VALID,177,VALID,4.36602,
2009-08-06, 00:52:04,VALID,998.63,VALID,0,VALID,58.3208,VALID,0,VALID,27.821,VALID,180,VALID,5.7707,
2009-08-06, 00:53:04,VALID,998.57,VALID,0,VALID,58.2445,VALID,0,VALID,27.8601,VALID,176,VALID,4.83437,
2009-08-06, 00:54:04,VALID,998.497,VALID,0,VALID,58.069,VALID,0,VALID,27.8384,VALID,177,VALID,6.18281,
2009-08-06, 00:55:04,VALID,998.556,VALID,0,VALID,58.2369,VALID,0,VALID,27.8405,VALID,170,VALID,4.75977,
2009-08-06, 00:56:04,VALID,998.555,VALID,0,VALID,58.4124,VALID,0,VALID,27.7993,VALID,178,VALID,4.24375,
2009-08-06, 00:57:04,VALID,998.596,VALID,0,VALID,58.626,VALID,0,VALID,27.7603,VALID,175,VALID,4.12383,
2009-08-06, 00:58:04,VALID,998.586,VALID,0,VALID,58.6336,VALID,0,VALID,27.7212,VALID,184,VALID,3.55273,
2009-08-06, 00:59:04,VALID,998.556,VALID,0,VALID,58.771,VALID,0,VALID,27.7017,VALID,170,VALID,3.7625,
2009-08-06, 01:00:04,VALID,998.573,VALID,0,VALID,58.9236,VALID,0,VALID,27.6842,VALID,174,VALID,4.61562,
2009-08-06, 01:01:04,VALID,998.529,VALID,0,VALID,59.1296,VALID,0,VALID,27.604,VALID,171,VALID,4.05898,
2009-08-06, 01:02:04,VALID,998.538,VALID,0,VALID,59.1753,VALID,0,VALID,27.604,VALID,170,VALID,5.40078,
2009-08-06, 01:03:04,VALID,998.566,VALID,0,VALID,59.0151,VALID,0,VALID,27.6626,VALID,179,VALID,4.60898,
2009-08-06, 01:04:04,VALID,998.604,VALID,0,VALID,59.183,VALID,0,VALID,27.6431,VALID,171,VALID,3.8875,
2009-08-06, 01:05:04,VALID,998.559,VALID,0,VALID,58.977,VALID,0,VALID,27.6821,VALID,174,VALID,5.03164,
2009-08-06, 01:06:04,VALID,998.561,VALID,0,VALID,59.0914,VALID,0,VALID,27.6626,VALID,177,VALID,4.26211,
2009-08-06, 01:07:04,VALID,998.604,VALID,0,VALID,59.2516,VALID,0,VALID,27.6235,VALID,178,VALID,3.99648,
2009-08-06, 01:08:04,VALID,998.647,VALID,0,VALID,59.099,VALID,0,VALID,27.604,VALID,178,VALID,5.83633,
2009-08-06, 01:09:04,VALID,998.636,VALID,0,VALID,59.2593,VALID,0,VALID,27.6647,VALID,173,VALID,4.34766,
2009-08-06, 01:10:04,VALID,998.642,VALID,0,VALID,59.305,VALID,0,VALID,27.604,VALID,171,VALID,5.63633,
2009-08-06, 01:11:04,VALID,998.639,VALID,0,VALID,59.244,VALID,0,VALID,27.604,VALID,172,VALID,4.88359,
2009-08-06, 01:12:04,VALID,998.559,VALID,0,VALID,58.7252,VALID,0,VALID,27.6626,VALID,177,VALID,6.04688,
2009-08-06, 01:13:04,VALID,998.591,VALID,0,VALID,58.8167,VALID,0,VALID,27.7017,VALID,168,VALID,4.21133,
2009-08-06, 01:14:04,VALID,998.571,VALID,0,VALID,58.9388,VALID,0,VALID,27.6821,VALID,173,VALID,4.55039,
2009-08-06, 01:15:04,VALID,998.563,VALID,0,VALID,59.1982,VALID,0,VALID,27.6235,VALID,172,VALID,4.37773,
2009-08-06, 01:16:04,VALID,998.542,VALID,0,VALID,59.5187,VALID,0,VALID,27.5845,VALID,159,VALID,4.12891,
2009-08-06, 01:17:04,VALID,998.635,VALID,0,VALID,59.4195,VALID,0,VALID,27.5845,VALID,169,VALID,4.01836,
2009-08-06, 01:18:04,VALID,998.594,VALID,0,VALID,59.1143,VALID,0,VALID,27.6235,VALID,175,VALID,4.8668,
2009-08-06, 01:19:04,VALID,998.567,VALID,0,VALID,59.099,VALID,0,VALID,27.6842,VALID,175,VALID,4.28398,
2009-08-06, 01:20:04,VALID,998.584,VALID,0,VALID,58.9464,VALID,0,VALID,27.6842,VALID,176,VALID,4.61055,
2009-08-06, 01:21:04,VALID,998.572,VALID,0,VALID,59.1143,VALID,0,VALID,27.6821,VALID,185,VALID,3.33984,
2009-08-06, 01:22:04,VALID,998.567,VALID,0,VALID,59.3813,VALID,0,VALID,27.6235,VALID,178,VALID,4.03164,
2009-08-06, 01:23:04,VALID,998.496,VALID,0,VALID,59.6331,VALID,0,VALID,27.5865,VALID,174,VALID,2.69805,
2009-08-06, 01:24:04,VALID,998.545,VALID,0,VALID,59.5492,VALID,0,VALID,27.5845,VALID,175,VALID,4.54063,
2009-08-06, 01:25:04,VALID,998.457,VALID,0,VALID,59.183,VALID,0,VALID,27.6647,VALID,178,VALID,5.43672,
2009-08-06, 01:26:04,VALID,998.484,VALID,0,VALID,58.8167,VALID,0,VALID,27.7212,VALID,176,VALID,4.37539,
2009-08-06, 01:27:04,VALID,998.507,VALID,0,VALID,58.8778,VALID,0,VALID,27.7798,VALID,177,VALID,3.66406,
2009-08-06, 01:28:04,VALID,998.494,VALID,0,VALID,58.7939,VALID,0,VALID,27.7603,VALID,176,VALID,4.24844,
2009-08-06, 01:29:04,VALID,998.472,VALID,0,VALID,59.0533,VALID,0,VALID,27.7017,VALID,169,VALID,3.83984,
2009-08-06, 01:30:04,VALID,998.398,VALID,0,VALID,58.8396,VALID,0,VALID,27.6647,VALID,178,VALID,4.78398,
2009-08-06, 01:31:04,VALID,998.442,VALID,0,VALID,58.7862,VALID,0,VALID,27.7428,VALID,169,VALID,4.7082,
2009-08-06, 01:32:04,VALID,998.381,VALID,0,VALID,58.3819,VALID,0,VALID,27.7819,VALID,192,VALID,4.09023,
2009-08-06, 01:33:04,VALID,998.403,VALID,0,VALID,57.9241,VALID,0,VALID,27.8579,VALID,189,VALID,4.11953,
2009-08-06, 01:34:04,VALID,998.422,VALID,0,VALID,58.5955,VALID,0,VALID,27.7993,VALID,162,VALID,3.92539,
2009-08-06, 01:35:04,VALID,998.444,VALID,0,VALID,59.3127,VALID,0,VALID,27.6821,VALID,169,VALID,2.85625,
2009-08-06, 01:36:04,VALID,998.449,VALID,0,VALID,59.4347,VALID,0,VALID,27.5865,VALID,182,VALID,3.4625,
2009-08-06, 01:37:04,VALID,998.463,VALID,0,VALID,59.6026,VALID,0,VALID,27.5454,VALID,171,VALID,3.13516,
2009-08-06, 01:38:04,VALID,998.467,VALID,0,VALID,59.4271,VALID,0,VALID,27.5084,VALID,175,VALID,3.6293,
2009-08-06, 01:39:04,VALID,998.484,VALID,0,VALID,59.4881,VALID,0,VALID,27.4868,VALID,175,VALID,4.10352,
2009-08-06, 01:40:04,VALID,998.46,VALID,0,VALID,59.4042,VALID,0,VALID,27.5084,VALID,172,VALID,3.55898,
2009-08-06, 01:41:04,VALID,998.47,VALID,0,VALID,59.5263,VALID,0,VALID,27.4868,VALID,180,VALID,3.51094,
2009-08-06, 01:42:04,VALID,998.448,VALID,0,VALID,59.5568,VALID,0,VALID,27.4868,VALID,178,VALID,3.4582,
2009-08-06, 01:43:04,VALID,998.423,VALID,0,VALID,59.6102,VALID,0,VALID,27.4672,VALID,172,VALID,3.38203,
2009-08-06, 01:44:04,VALID,998.415,VALID,0,VALID,59.4118,VALID,0,VALID,27.4868,VALID,173,VALID,3.5207,
2009-08-06, 01:45:04,VALID,998.424,VALID,0,VALID,59.6407,VALID,0,VALID,27.5084,VALID,184,VALID,2.36484,
2009-08-06, 01:46:04,VALID,998.408,VALID,0,VALID,59.7857,VALID,0,VALID,27.4282,VALID,178,VALID,3.31797,
2009-08-06, 01:47:04,VALID,998.422,VALID,0,VALID,59.9688,VALID,0,VALID,27.4086,VALID,172,VALID,3.13047,
2009-08-06, 01:48:04,VALID,998.403,VALID,0,VALID,60.068,VALID,0,VALID,27.3912,VALID,171,VALID,2.88516,
2009-08-06, 01:49:04,VALID,998.407,VALID,0,VALID,60.0604,VALID,0,VALID,27.3696,VALID,169,VALID,3.30938,
2009-08-06, 01:50:04,VALID,998.385,VALID,0,VALID,60.0756,VALID,0,VALID,27.3696,VALID,176,VALID,3.72227,
2009-08-06, 01:51:04,VALID,998.334,VALID,0,VALID,59.9154,VALID,0,VALID,27.4282,VALID,166,VALID,2.80469,
2009-08-06, 01:52:04,VALID,998.347,VALID,0,VALID,59.6789,VALID,0,VALID,27.4282,VALID,187,VALID,3.09023,
2009-08-06, 01:53:04,VALID,998.369,VALID,0,VALID,59.8925,VALID,0,VALID,27.4498,VALID,175,VALID,4.58945,
2009-08-06, 01:54:04,VALID,998.301,VALID,0,VALID,59.9001,VALID,0,VALID,27.4477,VALID,198,VALID,3.50586,
2009-08-06, 01:55:04,VALID,998.301,VALID,0,VALID,59.2059,VALID,0,VALID,27.6061,VALID,212,VALID,3.11641,
2009-08-06, 01:56:04,VALID,998.342,VALID,0,VALID,58.9541,VALID,0,VALID,27.7038,VALID,174,VALID,4.89336,
2009-08-06, 01:57:04,VALID,998.339,VALID,0,VALID,58.9464,VALID,0,VALID,27.7017,VALID,196,VALID,4.25703,
2009-08-06, 01:58:04,VALID,998.329,VALID,0,VALID,59.099,VALID,0,VALID,27.7212,VALID,182,VALID,4.55781,
2009-08-06, 01:59:04,VALID,998.342,VALID,0,VALID,59.3356,VALID,0,VALID,27.7017,VALID,167,VALID,3.51133,
2009-08-06, 02:00:04,VALID,998.343,VALID,0,VALID,59.511,VALID,0,VALID,27.5845,VALID,173,VALID,3.90664,
2009-08-06, 02:01:04,VALID,998.297,VALID,0,VALID,59.8315,VALID,0,VALID,27.5454,VALID,184,VALID,3.8375,
2009-08-06, 02:02:04,VALID,998.282,VALID,0,VALID,59.801,VALID,0,VALID,27.5063,VALID,165,VALID,3.71289,
2009-08-06, 02:03:04,VALID,998.265,VALID,0,VALID,59.7552,VALID,0,VALID,27.4477,VALID,174,VALID,3.9125,
2009-08-06, 02:04:04,VALID,998.258,VALID,0,VALID,59.9917,VALID,0,VALID,27.4672,VALID,197,VALID,4.1168,
2009-08-06, 02:05:04,VALID,998.269,VALID,0,VALID,59.5568,VALID,0,VALID,27.5649,VALID,175,VALID,4.89687,
2009-08-06, 02:06:04,VALID,998.245,VALID,0,VALID,59.9307,VALID,0,VALID,27.5279,VALID,171,VALID,3.22344,
2009-08-06, 02:07:04,VALID,998.284,VALID,0,VALID,60.2511,VALID,0,VALID,27.4282,VALID,177,VALID,3.30273,
2009-08-06, 02:08:04,VALID,998.241,VALID,0,VALID,60.0146,VALID,0,VALID,27.4303,VALID,175,VALID,3.96367,
2009-08-06, 02:09:04,VALID,998.293,VALID,0,VALID,59.9154,VALID,0,VALID,27.4282,VALID,175,VALID,4.93281,
2009-08-06, 02:10:04,VALID,998.264,VALID,0,VALID,59.8544,VALID,0,VALID,27.4086,VALID,175,VALID,4.1832,
2009-08-06, 02:11:04,VALID,998.226,VALID,0,VALID,60.0909,VALID,0,VALID,27.4086,VALID,176,VALID,3.32969,
2009-08-06, 02:12:04,VALID,998.227,VALID,0,VALID,60.0451,VALID,0,VALID,27.4303,VALID,179,VALID,4.35508,
2009-08-06, 02:13:04,VALID,998.184,VALID,0,VALID,59.7323,VALID,0,VALID,27.4693,VALID,174,VALID,3.94336,
2009-08-06, 02:14:04,VALID,998.149,VALID,0,VALID,59.511,VALID,0,VALID,27.4672,VALID,174,VALID,3.44727,
2009-08-06, 02:15:04,VALID,998.166,VALID,0,VALID,59.5873,VALID,0,VALID,27.4672,VALID,176,VALID,4.06445,
2009-08-06, 02:16:04,VALID,998.171,VALID,0,VALID,59.7476,VALID,0,VALID,27.4868,VALID,188,VALID,2.97656,
2009-08-06, 02:17:04,VALID,998.116,VALID,0,VALID,59.595,VALID,0,VALID,27.4868,VALID,183,VALID,4.03984,
2009-08-06, 02:18:04,VALID,998.151,VALID,0,VALID,59.7323,VALID,0,VALID,27.4868,VALID,177,VALID,3.75586,
2009-08-06, 02:19:04,VALID,998.088,VALID,0,VALID,59.656,VALID,0,VALID,27.5084,VALID,179,VALID,3.86523,
2009-08-06, 02:20:04,VALID,998.106,VALID,0,VALID,59.6255,VALID,0,VALID,27.4672,VALID,184,VALID,2.93516,
2009-08-06, 02:21:04,VALID,998.076,VALID,0,VALID,59.656,VALID,0,VALID,27.4477,VALID,174,VALID,3.70391,
2009-08-06, 02:22:04,VALID,998.074,VALID,0,VALID,59.6865,VALID,0,VALID,27.4282,VALID,177,VALID,3.41797,
2009-08-06, 02:23:04,VALID,998.086,VALID,0,VALID,59.6255,VALID,0,VALID,27.4672,VALID,180,VALID,3.98711,
2009-08-06, 02:24:04,VALID,998.064,VALID,0,VALID,59.6636,VALID,0,VALID,27.4477,VALID,186,VALID,3.69844,
2009-08-06, 02:25:04,VALID,998.118,VALID,0,VALID,59.7476,VALID,0,VALID,27.4477,VALID,181,VALID,2.84492,
2009-08-06, 02:26:04,VALID,998.096,VALID,0,VALID,59.0838,VALID,0,VALID,27.5454,VALID,180,VALID,4.41016,
2009-08-06, 02:27:04,VALID,998.075,VALID,0,VALID,59.1906,VALID,0,VALID,27.5475,VALID,191,VALID,3.10664,
2009-08-06, 02:28:04,VALID,998.081,VALID,0,VALID,58.8854,VALID,0,VALID,27.5865,VALID,181,VALID,4.71328,
2009-08-06, 02:29:04,VALID,998.063,VALID,0,VALID,58.7176,VALID,0,VALID,27.604,VALID,179,VALID,4.70078,
2009-08-06, 02:30:04,VALID,998.058,VALID,0,VALID,58.8091,VALID,0,VALID,27.6452,VALID,176,VALID,4.00625,
2009-08-06, 02:31:04,VALID,998.039,VALID,0,VALID,58.7862,VALID,0,VALID,27.5845,VALID,184,VALID,3.4625,
2009-08-06, 02:32:04,VALID,998.009,VALID,0,VALID,58.6947,VALID,0,VALID,27.5845,VALID,175,VALID,4.84688,
2009-08-06, 02:33:04,VALID,997.952,VALID,0,VALID,58.3819,VALID,0,VALID,27.6235,VALID,181,VALID,4.23281,
2009-08-06, 02:34:04,VALID,997.921,VALID,0,VALID,58.4276,VALID,0,VALID,27.6821,VALID,169,VALID,4.98828,
2009-08-06, 02:35:04,VALID,997.913,VALID,0,VALID,58.2369,VALID,0,VALID,27.7017,VALID,181,VALID,4.89375,
2009-08-06, 02:36:04,VALID,997.883,VALID,0,VALID,58.3971,VALID,0,VALID,27.6821,VALID,175,VALID,2.66641,
2009-08-06, 02:37:04,VALID,997.915,VALID,0,VALID,58.1682,VALID,0,VALID,27.6821,VALID,169,VALID,4.67188,
2009-08-06, 02:38:04,VALID,997.905,VALID,0,VALID,58.3056,VALID,0,VALID,27.6431,VALID,179,VALID,4.85273,
2009-08-06, 02:39:04,VALID,997.874,VALID,0,VALID,58.3208,VALID,0,VALID,27.6235,VALID,180,VALID,3.58477,
2009-08-06, 02:40:04,VALID,997.796,VALID,0,VALID,58.1301,VALID,0,VALID,27.6842,VALID,207,VALID,3.87578,
2009-08-06, 02:41:04,VALID,997.884,VALID,0,VALID,57.9241,VALID,0,VALID,27.7212,VALID,187,VALID,3.96094,
2009-08-06, 02:42:04,VALID,997.88,VALID,0,VALID,57.8325,VALID,0,VALID,27.7407,VALID,187,VALID,3.74258,
2009-08-06, 02:43:04,VALID,997.827,VALID,0,VALID,57.6113,VALID,0,VALID,27.8014,VALID,180,VALID,4.27461,
2009-08-06, 02:44:04,VALID,997.837,VALID,0,VALID,57.6036,VALID,0,VALID,27.8189,VALID,183,VALID,4.85352,
2009-08-06, 02:45:04,VALID,997.824,VALID,0,VALID,57.3213,VALID,0,VALID,27.8384,VALID,182,VALID,4.24961,
2009-08-06, 02:46:04,VALID,997.825,VALID,0,VALID,57.1611,VALID,0,VALID,27.897,VALID,185,VALID,3.78867,
2009-08-06, 02:47:04,VALID,997.808,VALID,0,VALID,57.3061,VALID,0,VALID,27.8775,VALID,188,VALID,3.33086,
2009-08-06, 02:48:04,VALID,997.802,VALID,0,VALID,57.4816,VALID,0,VALID,27.8775,VALID,178,VALID,3.55039,
2009-08-06, 02:49:04,VALID,997.797,VALID,0,VALID,57.4816,VALID,0,VALID,27.8384,VALID,184,VALID,5.46523,
2009-08-06, 02:50:04,VALID,997.807,VALID,0,VALID,57.4663,VALID,0,VALID,27.8384,VALID,173,VALID,6.55156,
2009-08-06, 02:51:04,VALID,997.829,VALID,0,VALID,57.3137,VALID,0,VALID,27.8384,VALID,181,VALID,5.96016,
2009-08-06, 02:52:04,VALID,997.859,VALID,0,VALID,56.9856,VALID,0,VALID,27.897,VALID,190,VALID,5.23047,
2009-08-06, 02:53:04,VALID,997.874,VALID,0,VALID,56.8788,VALID,0,VALID,27.9773,VALID,177,VALID,5.57891,
2009-08-06, 02:54:04,VALID,997.848,VALID,0,VALID,57.1382,VALID,0,VALID,27.9361,VALID,185,VALID,4.81875,
2009-08-06, 02:55:04,VALID,997.842,VALID,0,VALID,57.4968,VALID,0,VALID,27.8775,VALID,177,VALID,3.8293,
2009-08-06, 02:56:04,VALID,997.772,VALID,0,VALID,57.2756,VALID,0,VALID,27.8579,VALID,187,VALID,4.52266,
2009-08-06, 02:57:04,VALID,997.778,VALID,0,VALID,57.3671,VALID,0,VALID,27.8775,VALID,194,VALID,3.70742,
2009-08-06, 02:58:04,VALID,997.784,VALID,0,VALID,57.184,VALID,0,VALID,27.9165,VALID,177,VALID,5.66328,
2009-08-06, 02:59:04,VALID,997.767,VALID,0,VALID,57.4434,VALID,0,VALID,27.9187,VALID,178,VALID,4.26211,
2009-08-06, 03:00:04,VALID,997.776,VALID,0,VALID,57.5502,VALID,0,VALID,27.8775,VALID,172,VALID,4.98633,
2009-08-06, 03:01:04,VALID,997.816,VALID,0,VALID,57.9393,VALID,0,VALID,27.7993,VALID,182,VALID,5.46641,
2009-08-06, 03:02:04,VALID,997.8,VALID,0,VALID,57.5807,VALID,0,VALID,27.7798,VALID,176,VALID,5.19297,
2009-08-06, 03:03:04,VALID,997.694,VALID,0,VALID,57.1459,VALID,0,VALID,27.8775,VALID,182,VALID,6.1293,
2009-08-06, 03:04:04,VALID,997.768,VALID,0,VALID,57.535,VALID,0,VALID,27.897,VALID,201,VALID,3.99414,
2009-08-06, 03:05:04,VALID,997.728,VALID,0,VALID,57.6647,VALID,0,VALID,27.8189,VALID,177,VALID,4.3543,
2009-08-06, 03:06:04,VALID,997.723,VALID,0,VALID,57.3519,VALID,0,VALID,27.8579,VALID,176,VALID,6.26289,
2009-08-06, 03:07:04,VALID,997.743,VALID,0,VALID,57.4739,VALID,0,VALID,27.8384,VALID,175,VALID,5.95469,
2009-08-06, 03:08:04,VALID,997.703,VALID,0,VALID,57.5884,VALID,0,VALID,27.8405,VALID,166,VALID,3.9793,
2009-08-06, 03:09:04,VALID,997.698,VALID,0,VALID,57.5426,VALID,0,VALID,27.7798,VALID,182,VALID,5.71719,
2009-08-06, 03:10:04,VALID,997.733,VALID,0,VALID,57.8096,VALID,0,VALID,27.7819,VALID,176,VALID,4.18516,
2009-08-06, 03:11:04,VALID,997.732,VALID,0,VALID,57.5273,VALID,0,VALID,27.7603,VALID,177,VALID,4.36211,
2009-08-06, 03:12:04,VALID,997.701,VALID,0,VALID,57.451,VALID,0,VALID,27.7798,VALID,188,VALID,4.99922,
2009-08-06, 03:13:04,VALID,997.688,VALID,0,VALID,57.3137,VALID,0,VALID,27.8601,VALID,180,VALID,4.9918,
2009-08-06, 03:14:04,VALID,997.76,VALID,0,VALID,57.7639,VALID,0,VALID,27.7603,VALID,175,VALID,4.14844,
2009-08-06, 03:15:04,VALID,997.755,VALID,0,VALID,57.8173,VALID,0,VALID,27.7212,VALID,172,VALID,4.6793,
2009-08-06, 03:16:04,VALID,997.716,VALID,0,VALID,57.8936,VALID,0,VALID,27.6821,VALID,175,VALID,3.71211,
2009-08-06, 03:17:04,VALID,997.737,VALID,0,VALID,58.1148,VALID,0,VALID,27.6626,VALID,170,VALID,3.83594,
2009-08-06, 03:18:04,VALID,997.73,VALID,0,VALID,58.275,VALID,0,VALID,27.604,VALID,166,VALID,5.20039,
2009-08-06, 03:19:04,VALID,997.718,VALID,0,VALID,57.7257,VALID,0,VALID,27.7017,VALID,174,VALID,6.56563,
2009-08-06, 03:20:04,VALID,997.693,VALID,0,VALID,57.9851,VALID,0,VALID,27.7212,VALID,167,VALID,5.09258,
2009-08-06, 03:21:04,VALID,997.708,VALID,0,VALID,58.275,VALID,0,VALID,27.6626,VALID,164,VALID,3.62188,
2009-08-06, 03:22:04,VALID,997.706,VALID,0,VALID,58.4505,VALID,0,VALID,27.6235,VALID,176,VALID,6.00234,
2009-08-06, 03:23:04,VALID,997.663,VALID,0,VALID,57.9317,VALID,0,VALID,27.6647,VALID,170,VALID,4.15039,
2009-08-06, 03:24:04,VALID,997.689,VALID,0,VALID,58.2445,VALID,0,VALID,27.6431,VALID,168,VALID,6.24648,
2009-08-06, 03:25:04,VALID,997.639,VALID,0,VALID,57.947,VALID,0,VALID,27.6821,VALID,177,VALID,5.32656,
2009-08-06, 03:26:04,VALID,997.669,VALID,0,VALID,57.9241,VALID,0,VALID,27.7798,VALID,165,VALID,5.30117,
2009-08-06, 03:27:04,VALID,997.69,VALID,0,VALID,58.0843,VALID,0,VALID,27.7407,VALID,167,VALID,5.45234,
2009-08-06, 03:28:04,VALID,997.649,VALID,0,VALID,57.8554,VALID,0,VALID,27.7407,VALID,175,VALID,6.53398,
2009-08-06, 03:29:04,VALID,997.633,VALID,0,VALID,57.7104,VALID,0,VALID,27.8405,VALID,162,VALID,6.76445,
2009-08-06, 03:30:04,VALID,997.64,VALID,0,VALID,57.7181,VALID,0,VALID,27.7993,VALID,165,VALID,6.47227,
2009-08-06, 03:31:04,VALID,997.605,VALID,0,VALID,57.9393,VALID,0,VALID,27.8189,VALID,159,VALID,4.84688,
2009-08-06, 03:32:04,VALID,997.638,VALID,0,VALID,58.42,VALID,0,VALID,27.7407,VALID,165,VALID,5.66094,
2009-08-06, 03:33:04,VALID,997.589,VALID,0,VALID,58.3742,VALID,0,VALID,27.6821,VALID,168,VALID,5.57148,
2009-08-06, 03:34:04,VALID,997.583,VALID,0,VALID,58.4581,VALID,0,VALID,27.7017,VALID,171,VALID,4.89219,
2009-08-06, 03:35:04,VALID,997.579,VALID,0,VALID,58.6413,VALID,0,VALID,27.6821,VALID,173,VALID,5.49844,
2009-08-06, 03:36:04,VALID,997.567,VALID,0,VALID,58.9464,VALID,0,VALID,27.6235,VALID,161,VALID,4.35391,
2009-08-06, 03:37:04,VALID,997.566,VALID,0,VALID,58.565,VALID,0,VALID,27.604,VALID,173,VALID,5.69063,
2009-08-06, 03:38:04,VALID,997.568,VALID,0,VALID,58.7328,VALID,0,VALID,27.6626,VALID,183,VALID,4.78516,
2009-08-06, 03:39:04,VALID,997.585,VALID,0,VALID,58.8091,VALID,0,VALID,27.6431,VALID,176,VALID,6.00078,
2009-08-06, 03:40:04,VALID,997.547,VALID,0,VALID,58.7633,VALID,0,VALID,27.6431,VALID,197,VALID,4.93984,
2009-08-06, 03:41:04,VALID,997.602,VALID,0,VALID,58.8396,VALID,0,VALID,27.641,VALID,184,VALID,5.22031,
2009-08-06, 03:42:04,VALID,997.598,VALID,0,VALID,58.8854,VALID,0,VALID,27.6647,VALID,179,VALID,4.72031,
2009-08-06, 03:43:04,VALID,997.621,VALID,0,VALID,58.7862,VALID,0,VALID,27.5845,VALID,173,VALID,4.45937,
2009-08-06, 03:44:04,VALID,997.613,VALID,0,VALID,58.4963,VALID,0,VALID,27.6431,VALID,172,VALID,5.04336,
2009-08-06, 03:45:04,VALID,997.595,VALID,0,VALID,58.626,VALID,0,VALID,27.6235,VALID,177,VALID,4.70859,
2009-08-06, 03:46:04,VALID,997.537,VALID,0,VALID,58.8015,VALID,0,VALID,27.6235,VALID,166,VALID,4.66953,